GFSGL_700_temp_333.txt.gz
Temp
10 10 10 10 9 9 9 9 9 9 9 9 8 8 8 7 7 6 5 5 5 4 4 4 4 3 3 3 3 3 2 2 2 2 1 1 -0 -1 -1 -1 -1 -2 -2
10 10 10 9 9 9 9 9 9 9 9 9 8 8 7 7 6 6 5 5 4 4 4 3 3 3 3 2 2 2 1 1 1 1 0 -0 -0 -1 -2 -2 -3 -3 -3
10 10 9 9 9 9 9 9 9 9 9 9 8 8 7 6 6 5 5 4 4 4 3 3 3 2 2 2 1 1 0 0 -0 -0 -0 -1 -1 -2 -3 -3 -4 -4 -3
10 10 9 9 9 9 9 9 9 9 9 8 8 7 7 6 6 5 5 5 4 4 3 3 2 2 2 1 1 0 -0 -1 -1 -1 -1 -2 -2 -3 -4 -4 -4 -4 -4
10 10 9 9 9 9 9 9 9 8 8 8 8 7 7 6 5 5 5 5 4 4 4 3 3 2 1 0 -0 -1 -1 -1 -2 -2 -2 -3 -3 -4 -4 -5 -4 -5 -5
10 10 9 9 8 8 9 8 8 8 8 8 7 7 6 6 5 5 4 4 4 4 3 3 2 2 1 1 -0 -1 -2 -2 -3 -3 -3 -3 -4 -4 -5 -5 -5 -5 -5
10 9 9 8 8 8 8 8 8 7 7 7 7 6 6 5 5 4 4 4 3 3 3 2 2 1 1 0 -0 -1 -1 -2 -3 -4 -4 -4 -4 -5 -5 -5 -5 -5 -5
9 9 8 8 7 7 7 7 7 7 7 7 6 6 5 5 4 4 4 3 3 2 2 1 1 1 0 -0 -1 -2 -2 -3 -4 -4 -4 -5 -5 -5 -6 -6 -6 -5 -6
9 8 8 7 7 7 7 7 7 6 6 6 6 5 5 4 4 4 4 3 3 2 1 1 0 -0 -1 -2 -2 -2 -3 -4 -5 -5 -5 -5 -5 -6 -6 -6 -6 -7 -6
9 8 7 6 6 6 6 6 6 6 6 6 5 4 4 4 4 3 3 2 2 1 1 0 -0 -1 -2 -3 -3 -3 -4 -4 -4 -4 -4 -4 -4 -5 -6 -6 -6 -7 -7
8 7 7 6 6 6 6 6 6 6 5 5 4 4 4 3 3 3 2 2 1 0 -0 -1 -2 -2 -3 -3 -4 -4 -4 -4 -4 -3 -3 -4 -4 -4 -5 -6 -6 -6 -6
8 7 6 6 6 6 6 6 5 5 5 4 4 4 3 3 3 2 1 1 0 -0 -1 -2 -2 -3 -3 -4 -4 -3 -4 -3 -3 -3 -3 -3 -4 -4 -4 -5 -6 -6 -6
7 6 6 5 5 6 5 5 5 5 4 4 3 3 3 2 2 1 1 0 -0 -1 -2 -2 -3 -3 -3 -3 -3 -3 -3 -3 -3 -3 -3 -3 -4 -4 -4 -4 -5 -6 -6
7 6 6 5 5 5 5 5 5 4 3 3 3 2 2 2 1 1 0 -0 -1 -2 -2 -3 -3 -3 -3 -3 -3 -3 -3 -3 -3 -4 -4 -4 -4 -4 -4 -4 -5 -6 -6
6 6 5 5 5 4 5 4 4 3 2 2 2 2 2 1 1 0 -0 -1 -1 -2 -3 -3 -3 -3 -3 -3 -3 -3 -3 -3 -4 -4 -4 -4 -4 -4 -5 -5 -6 -6 -6
6 5 5 5 4 4 4 4 3 2 2 2 2 2 1 1 0 -0 -0 -1 -2 -3 -3 -3 -3 -3 -3 -3 -3 -3 -4 -4 -4 -4 -4 -4 -5 -6 -6 -7 -6 -7 -7
5 5 4 4 4 4 4 3 2 2 2 1 1 2 1 0 -0 -1 -1 -1 -2 -3 -4 -4 -3 -3 -3 -3 -4 -4 -4 -4 -4 -4 -4 -5 -6 -7 -8 -8 -8 -8 -8
4 4 4 4 4 3 2 1 1 1 1 1 1 1 1 -0 -1 -1 -1 -2 -3 -4 -4 -4 -4 -4 -4 -4 -4 -4 -4 -4 -4 -4 -4 -5 -7 -8 -9 -9 -9 -9 -10
4 3 3 3 3 2 1 1 1 1 1 1 1 1 0 -1 -1 -1 -1 -2 -4 -4 -4 -4 -4 -4 -4 -4 -4 -4 -4 -4 -4 -4 -5 -6 -7 -9 -9 -10 -10 -10 -10
3 3 3 2 2 1 0 0 0 0 0 0 0 -0 -1 -1 -2 -2 -2 -3 -4 -4 -4 -4 -4 -4 -4 -4 -4 -4 -5 -5 -5 -5 -5 -7 -8 -9 -10 -10 -10 -11 -11
2 2 2 1 0 -0 -0 -0 -0 -0 -0 -0 -1 -1 -2 -2 -2 -2 -3 -3 -3 -4 -4 -4 -4 -4 -4 -4 -5 -5 -5 -5 -5 -5 -6 -7 -9 -9 -10 -10 -11 -11 -11
1 2 0 -1 -1 -1 -1 -0 -0 -1 -1 -1 -1 -2 -2 -3 -3 -3 -3 -3 -4 -4 -4 -4 -5 -5 -5 -5 -5 -5 -5 -5 -5 -6 -6 -8 -9 -10 -10 -10 -11 -11 -11
0 -0 -1 -1 -1 -1 -1 -1 -1 -1 -1 -2 -2 -3 -3 -3 -3 -4 -4 -4 -4 -4 -4 -5 -5 -5 -5 -5 -5 -5 -5 -6 -6 -6 -7 -8 -9 -10 -10 -10 -11 -11 -11
-2 -2 -2 -2 -2 -2 -2 -2 -2 -2 -3 -3 -3 -4 -4 -4 -4 -4 -4 -4 -4 -4 -5 -5 -5 -5 -5 -5 -5 -5 -6 -6 -6 -7 -8 -9 -9 -10 -10 -11 -11 -11 -11
-3 -3 -4 -3 -2 -2 -2 -3 -3 -3 -4 -4 -4 -4 -4 -4 -5 -5 -5 -5 -5 -5 -5 -5 -5 -5 -5 -5 -5 -6 -6 -6 -6 -7 -8 -9 -9 -10 -11 -11 -11 -11 -12
-4 -4 -3 -3 -3 -3 -4 -4 -4 -4 -4 -5 -5 -5 -5 -5 -5 -5 -5 -5 -5 -5 -5 -6 -6 -6 -5 -5 -6 -6 -6 -6 -6 -7 -8 -9 -9 -10 -11 -11 -12 -12 -12

GFSGL_700_temp_336.txt.gz
Temp
11 11 11 10 10 10 9 9 9 9 10 10 9 9 9 8 8 7 7 6 6 6 5 4 4 3 3 3 3 2 2 1 1 1 0 -0 -0 -1 -1 -2 -2 -3 -3
11 11 10 10 10 10 9 9 9 9 10 10 9 9 9 9 8 7 7 6 6 6 5 5 4 4 3 3 2 2 1 0 -0 0 -0 -1 -1 -2 -2 -3 -4 -3 -3
11 11 10 10 9 9 9 9 9 9 9 9 9 9 9 8 8 7 7 6 6 5 5 4 4 3 3 2 2 2 1 0 -0 -0 -0 -1 -2 -3 -3 -3 -4 -4 -5
11 10 10 10 9 9 9 9 9 9 9 9 9 9 8 8 7 7 6 6 5 5 4 4 3 3 3 2 2 1 1 0 -0 -1 -2 -2 -3 -3 -4 -4 -4 -4 -5
11 10 10 10 9 9 9 8 8 8 8 9 8 8 8 8 7 6 6 5 5 4 4 3 3 2 2 1 1 1 0 -1 -1 -2 -2 -3 -3 -4 -4 -4 -4 -4 -5
10 10 10 9 9 9 8 8 8 8 8 8 8 7 7 7 7 6 5 5 4 4 4 3 2 2 1 1 0 -1 -1 -2 -2 -3 -4 -4 -4 -4 -4 -5 -5 -6 -6
10 10 10 9 9 8 8 8 8 8 7 8 7 7 7 6 6 5 4 4 4 4 3 2 2 1 1 0 -0 -1 -2 -2 -4 -4 -4 -4 -4 -5 -5 -6 -6 -6 -6
10 10 9 9 9 8 8 7 7 7 7 7 7 7 6 6 5 4 4 4 4 3 2 2 1 1 0 -1 -1 -2 -3 -3 -4 -4 -4 -4 -4 -5 -5 -5 -5 -6 -6
11 10 10 9 9 8 7 7 7 6 6 6 6 6 6 5 5 4 4 3 3 3 2 1 1 -0 -1 -1 -2 -3 -3 -4 -4 -4 -4 -4 -4 -5 -5 -6 -5 -5 -5
11 10 9 9 8 8 7 6 6 6 6 6 6 6 5 5 4 4 3 3 3 2 1 1 0 -1 -1 -2 -2 -3 -3 -4 -4 -4 -4 -4 -4 -4 -5 -5 -5 -6 -6
11 10 10 9 8 7 6 6 5 5 5 6 6 5 5 4 3 3 3 2 2 1 1 0 -1 -1 -2 -2 -3 -3 -3 -3 -3 -3 -3 -3 -3 -3 -4 -4 -4 -5 -6
10 10 9 8 7 7 6 5 5 5 5 6 6 5 4 3 3 3 2 2 1 1 0 -0 -1 -2 -2 -3 -3 -3 -3 -3 -3 -3 -3 -3 -4 -4 -4 -4 -4 -4 -5
10 9 8 8 7 6 6 5 5 5 5 5 5 4 3 3 3 3 2 2 1 0 -0 -1 -1 -2 -3 -3 -3 -3 -3 -3 -3 -3 -3 -4 -4 -4 -4 -4 -4 -5 -5
9 9 8 7 6 6 5 5 5 5 5 5 4 3 2 2 2 2 2 1 1 -0 -1 -1 -2 -3 -3 -3 -3 -3 -3 -3 -3 -3 -3 -4 -4 -4 -4 -4 -5 -6 -6
9 8 7 6 6 5 5 4 4 4 5 4 3 2 2 2 2 2 1 1 0 -0 -1 -1 -2 -3 -3 -4 -3 -3 -3 -4 -4 -4 -4 -4 -4 -4 -4 -5 -6 -7 -8
8 7 6 6 5 5 4 4 4 4 4 3 2 2 2 1 1 1 1 0 -0 -1 -1 -1 -3 -4 -4 -4 -4 -4 -4 -4 -4 -4 -4 -4 -4 -4 -5 -6 -7 -8 -8
7 6 6 5 5 4 4 4 4 4 3 3 2 1 1 1 1 1 1 -0 -1 -1 -1 -2 -3 -4 -4 -4 -4 -4 -4 -4 -4 -4 -4 -4 -5 -5 -5 -7 -8 -8 -9
6 5 5 4 4 4 3 3 3 3 3 2 1 1 1 1 0 0 -0 -1 -2 -2 -2 -2 -3 -4 -4 -4 -4 -4 -4 -4 -4 -4 -4 -5 -5 -5 -6 -7 -8 -9 -10
5 4 4 3 3 3 3 3 3 2 1 1 0 0 0 0 -0 -1 -1 -2 -2 -2 -2 -3 -4 -4 -4 -4 -5 -5 -5 -5 -5 -5 -5 -5 -5 -6 -7 -8 -9 -9 -11
3 3 3 2 2 3 3 2 2 1 0 0 0 -0 -0 -0 -1 -1 -2 -2 -3 -3 -3 -3 -4 -4 -5 -5 -5 -5 -5 -5 -5 -5 -5 -5 -6 -7 -8 -9 -9 -10 -10
2 2 2 2 2 2 2 1 0 -0 -0 -0 -0 -1 -1 -1 -2 -2 -3 -3 -3 -3 -4 -4 -4 -4 -5 -5 -5 -5 -5 -5 -5 -5 -5 -5 -6 -7 -9 -9 -10 -10 -10
2 1 1 2 2 1 0 -0 -1 -1 -1 -1 -1 -1 -1 -2 -3 -3 -4 -4 -4 -4 -4 -4 -4 -5 -5 -5 -5 -5 -5 -5 -5 -5 -5 -5 -6 -7 -9 -9 -10 -10 -10
1 1 1 1 1 0 -1 -1 -2 -2 -2 -1 -2 -2 -3 -3 -4 -4 -4 -4 -4 -4 -5 -5 -5 -5 -5 -5 -6 -6 -6 -6 -6 -6 -5 -5 -6 -7 -9 -9 -10 -10 -11
0 0 0 -1 -1 -2 -2 -3 -3 -2 -2 -2 -2 -3 -3 -4 -4 -4 -4 -5 -5 -5 -5 -5 -5 -5 -5 -5 -6 -6 -6 -6 -6 -6 -6 -6 -6 -7 -9 -10 -11 -11 -11
-0 -0 -1 -3 -4 -4 -4 -3 -4 -3 -3 -3 -4 -4 -4 -5 -5 -5 -5 -5 -5 -5 -5 -5 -5 -6 -6 -6 -6 -6 -6 -6 -7 -7 -6 -6 -6 -8 -9 -10 -11 -11 -11
-2 -3 -3 -5 -5 -5 -5 -4 -5 -4 -4 -4 -5 -5 -5 -5 -5 -5 -5 -5 -5 -6 -6 -6 -6 -6 -6 -6 -6 -7 -7 -7 -7 -7 -7 -6 -6 -8 -9 -10 -11 -11 -12

GFSGL_700_temp_342.txt.gz
Temp
13 12 12 12 11 11 11 11 10 10 10 9 9 9 9 9 9 9 9 9 8 8 7 7 6 6 5 5 4 4 4 3 3 4 3 2 1 -0 -1 -1 -2 -3 -3
12 12 12 12 11 11 11 10 10 10 9 9 9 9 9 8 8 8 8 8 8 8 7 7 6 6 5 5 4 4 3 2 2 3 2 1 -0 -1 -2 -3 -3 -4 -4
12 12 12 12 11 11 10 10 10 9 9 9 9 9 8 8 8 8 8 8 8 7 7 6 5 5 5 4 4 3 3 2 2 1 1 -0 -1 -2 -2 -3 -4 -4 -4
12 12 12 12 11 11 10 10 10 9 9 9 8 8 8 8 8 7 7 7 7 7 6 6 5 5 4 4 3 3 2 2 1 0 0 -1 -2 -2 -3 -3 -4 -4 -4
12 12 12 11 11 11 10 10 9 9 8 8 8 8 7 7 7 7 7 7 7 6 6 5 4 4 3 3 3 3 2 1 0 -0 -1 -1 -2 -3 -4 -4 -4 -4 -3
12 12 12 11 11 11 10 9 9 9 8 8 7 7 7 7 7 7 6 6 6 6 5 4 4 3 3 2 2 1 1 1 -0 -1 -2 -2 -3 -4 -4 -4 -4 -4 -3
12 12 11 11 11 11 10 9 9 8 8 7 7 7 6 6 6 6 6 6 6 5 5 4 3 3 2 2 1 1 0 -1 -1 -2 -2 -3 -3 -4 -4 -3 -4 -3 -3
12 12 11 11 10 10 10 9 9 8 7 7 6 6 6 6 6 6 6 6 5 5 4 3 3 2 2 2 1 0 0 -1 -2 -3 -3 -3 -3 -4 -3 -3 -3 -3 -3
12 12 11 11 10 10 10 9 9 8 7 7 6 6 5 5 5 5 5 5 5 4 4 3 2 2 2 1 0 1 0 -1 -2 -3 -3 -4 -4 -4 -4 -4 -4 -4 -3
12 12 12 11 10 10 9 9 8 8 7 6 6 5 5 5 5 5 5 5 5 4 3 2 2 2 1 1 1 0 -0 -1 -2 -3 -3 -4 -4 -4 -4 -4 -4 -4 -4
12 12 11 11 10 10 9 8 8 7 6 6 6 5 5 4 5 4 5 5 4 4 3 2 2 1 1 0 -0 -0 -1 -2 -3 -3 -3 -3 -4 -4 -4 -4 -4 -4 -4
12 11 11 11 10 10 9 8 7 7 6 6 5 5 4 4 4 4 4 4 4 3 2 2 1 1 0 0 -1 -1 -1 -2 -3 -3 -3 -4 -4 -4 -4 -4 -4 -5 -5
11 11 11 11 10 10 9 8 7 7 6 5 4 4 4 4 4 4 4 4 4 3 2 1 1 1 0 -0 -1 -2 -2 -3 -3 -3 -4 -4 -4 -4 -4 -4 -4 -4 -4
11 11 11 11 10 9 9 8 7 7 6 5 4 4 3 3 4 4 4 4 3 2 1 1 0 0 -0 -1 -2 -2 -2 -3 -3 -4 -4 -4 -4 -4 -5 -5 -4 -4 -4
11 10 10 10 10 9 9 7 7 6 5 4 4 3 3 3 3 3 4 3 2 1 0 0 -0 -0 -1 -1 -2 -2 -2 -3 -4 -4 -4 -4 -5 -4 -5 -5 -5 -5 -5
9 10 10 9 9 9 8 7 7 6 5 4 3 3 3 3 3 3 3 3 1 0 -0 -0 -1 -1 -1 -2 -2 -3 -3 -3 -4 -4 -4 -5 -5 -5 -5 -5 -5 -5 -5
8 8 8 8 8 8 8 7 7 6 5 4 3 3 3 3 3 3 2 2 0 -0 -1 -1 -1 -1 -2 -2 -3 -3 -3 -4 -4 -4 -5 -5 -5 -5 -5 -5 -5 -5 -5
7 7 7 7 7 7 7 6 5 5 3 3 3 2 2 2 2 2 2 0 -1 -1 -1 -1 -2 -2 -2 -3 -3 -4 -4 -4 -4 -4 -5 -5 -5 -5 -5 -6 -6 -6 -6
6 6 6 6 6 6 5 5 4 3 3 2 2 2 2 2 2 2 1 -1 -1 -2 -2 -2 -2 -3 -3 -3 -4 -4 -4 -4 -5 -5 -5 -5 -5 -6 -6 -6 -6 -6 -6
6 6 5 5 5 4 4 4 3 2 2 2 1 1 1 1 1 0 -0 -1 -2 -2 -3 -3 -3 -3 -4 -4 -4 -4 -4 -5 -5 -5 -5 -5 -6 -6 -6 -6 -6 -6 -6
4 4 4 4 4 4 3 3 2 1 1 1 1 1 0 -0 -1 -1 -2 -2 -2 -2 -3 -3 -4 -4 -4 -4 -4 -5 -5 -5 -5 -5 -5 -6 -6 -6 -6 -6 -6 -6 -6
4 4 4 4 3 2 2 1 1 1 1 1 0 0 -1 -1 -2 -2 -3 -3 -3 -3 -3 -4 -4 -5 -5 -5 -5 -5 -5 -5 -5 -5 -6 -6 -6 -6 -6 -7 -7 -7 -7
3 3 3 2 1 1 0 0 0 0 -0 -0 -1 -2 -3 -3 -4 -5 -4 -4 -4 -4 -5 -5 -5 -5 -5 -5 -5 -5 -5 -5 -6 -6 -6 -6 -7 -7 -7 -7 -7 -7 -7
2 2 2 1 0 -0 -0 -1 -1 -1 -1 -2 -2 -3 -4 -6 -6 -4 -4 -4 -4 -5 -5 -5 -5 -5 -5 -5 -5 -6 -6 -6 -6 -6 -7 -7 -7 -7 -7 -7 -8 -7 -7
1 1 1 0 -1 -1 -1 -1 -2 -2 -2 -3 -4 -4 -5 -6 -6 -6 -5 -5 -5 -5 -5 -5 -5 -5 -6 -6 -6 -6 -6 -7 -7 -7 -8 -8 -8 -8 -8 -8 -8 -8 -8
1 1 -0 -1 -2 -2 -2 -2 -2 -2 -2 -4 -5 -8 -8 -7 -6 -5 -5 -5 -6 -5 -5 -6 -6 -6 -6 -6 -7 -7 -7 -7 -7 -8 -8 -8 -8 -8 -9 -8 -8 -8 -8

GFSGL_700_temp_345.txt.gz
Temp
13 13 13 12 12 12 11 11 11 10 10 10 10 9 9 9 9 8 8 8 8 8 8 8 7 7 6 6 5 5 4 4 4 4 3 2 2 1 1 -0 -1 -2 -3
13 13 12 12 12 12 11 11 11 10 10 10 9 9 9 8 8 8 8 8 8 8 7 7 7 7 6 6 5 4 4 3 3 3 3 2 2 0 -0 -1 -2 -3 -3
13 13 12 12 12 12 11 11 10 10 10 9 9 9 8 8 8 8 7 7 7 7 7 7 7 6 6 5 5 4 3 3 2 3 3 2 1 -0 -1 -2 -2 -3 -4
12 12 12 12 12 11 11 10 10 10 9 9 9 8 8 8 8 7 7 7 7 7 7 7 6 6 6 5 4 4 3 2 2 2 2 2 0 -1 -1 -2 -2 -3 -4
12 12 12 12 11 11 11 10 10 10 9 9 9 8 8 7 7 7 6 6 6 6 6 6 6 6 5 5 4 3 3 2 2 2 1 0 -0 -2 -2 -3 -3 -3 -3
12 13 12 12 11 11 11 10 10 10 9 9 8 8 7 7 7 6 6 6 6 6 6 6 6 5 5 4 3 3 2 2 1 1 1 -0 -1 -2 -2 -3 -3 -3 -3
12 12 12 12 11 11 11 10 10 10 9 9 8 8 7 7 6 6 6 5 5 5 5 5 5 5 4 3 3 2 1 1 1 1 1 -1 -1 -2 -3 -3 -3 -3 -3
12 11 11 11 11 11 11 10 10 10 9 8 8 7 7 6 6 5 5 5 5 5 5 5 5 4 4 3 2 2 1 1 0 -0 -1 -2 -2 -3 -3 -3 -3 -3 -3
12 12 12 12 12 11 11 10 10 10 9 9 8 7 6 6 6 5 5 5 5 4 5 5 5 4 3 2 2 1 1 0 -0 -1 -1 -2 -3 -3 -3 -4 -4 -4 -3
12 12 12 12 12 11 10 10 10 9 9 8 7 7 6 6 5 5 5 4 4 4 4 4 4 4 3 2 1 1 1 0 -0 -1 -2 -3 -3 -4 -4 -4 -4 -4 -4
12 12 12 12 12 11 10 10 9 9 8 8 7 6 6 5 5 5 4 4 4 4 4 4 4 3 2 2 1 1 0 -0 -1 -2 -2 -3 -3 -4 -4 -4 -5 -5 -5
12 12 11 11 11 11 11 10 9 9 8 7 7 6 6 5 5 4 4 4 4 4 4 3 3 3 2 1 0 0 0 -1 -2 -2 -3 -3 -4 -4 -4 -5 -5 -5 -5
11 11 11 11 11 11 10 10 9 8 8 8 7 6 5 5 4 4 3 3 3 3 3 3 3 2 1 1 0 -0 -1 -1 -2 -2 -3 -3 -4 -4 -4 -5 -5 -5 -5
10 10 10 10 10 10 10 9 9 9 8 8 7 6 5 4 4 3 3 3 3 3 3 3 3 2 1 -0 -0 -0 -1 -1 -2 -3 -3 -3 -4 -4 -5 -5 -5 -5 -5
9 9 9 10 10 10 9 9 9 9 8 7 6 5 4 4 3 3 3 3 3 3 3 2 2 1 -0 -1 -1 -1 -1 -2 -3 -3 -3 -4 -4 -4 -5 -5 -5 -5 -5
8 8 8 8 8 9 9 9 9 8 7 7 6 6 5 4 3 2 2 2 3 2 2 2 1 0 -0 -1 -1 -1 -2 -3 -3 -4 -4 -4 -4 -4 -5 -5 -5 -5 -5
7 7 7 7 7 8 8 8 8 8 7 7 6 5 4 3 2 2 2 2 2 2 2 1 0 -1 -1 -2 -2 -2 -3 -3 -4 -4 -4 -4 -4 -5 -5 -5 -5 -6 -6
6 7 7 6 7 7 7 7 7 7 7 6 5 4 3 2 2 2 2 2 1 1 1 0 -1 -1 -2 -2 -2 -3 -3 -4 -4 -4 -4 -5 -5 -5 -5 -5 -6 -6 -6
5 6 6 6 6 6 6 6 6 6 6 5 4 3 3 2 2 2 1 1 1 0 0 -0 -2 -2 -2 -3 -3 -4 -4 -4 -4 -4 -4 -5 -5 -5 -6 -6 -6 -6 -6
5 5 5 5 6 6 6 6 5 5 5 4 3 2 2 1 1 1 1 1 0 -0 -1 -1 -2 -3 -3 -3 -4 -4 -4 -4 -5 -5 -5 -5 -5 -6 -6 -6 -6 -6 -7
4 3 3 4 4 4 4 4 4 3 3 2 1 1 1 1 1 0 0 -0 -1 -2 -2 -3 -3 -3 -3 -4 -4 -5 -5 -5 -5 -5 -5 -5 -6 -6 -6 -6 -7 -7 -7
3 3 3 3 3 3 4 3 3 2 1 1 1 1 1 0 0 -0 -1 -1 -2 -3 -3 -4 -4 -4 -4 -4 -5 -5 -5 -5 -5 -5 -5 -6 -6 -7 -7 -7 -8 -8 -8
2 2 2 2 3 3 3 3 2 1 1 0 0 -0 -0 -0 -1 -1 -2 -3 -4 -5 -5 -4 -4 -5 -5 -5 -5 -5 -5 -5 -5 -6 -6 -6 -6 -7 -7 -8 -8 -8 -8
2 2 1 1 2 2 2 2 1 0 -0 -0 -0 -1 -1 -1 -2 -2 -4 -4 -5 -6 -5 -5 -5 -5 -5 -5 -5 -6 -6 -6 -6 -6 -6 -7 -7 -8 -8 -8 -9 -9 -9
1 1 1 1 1 1 1 1 1 0 -1 -1 -2 -2 -2 -2 -2 -4 -6 -6 -7 -7 -6 -5 -5 -5 -5 -6 -6 -6 -6 -6 -6 -6 -7 -7 -8 -8 -8 -8 -9 -9 -9
1 0 -0 -0 0 1 1 -0 -1 -2 -2 -2 -2 -2 -2 -3 -4 -6 -5 -7 -7 -6 -6 -6 -6 -6 -6 -6 -6 -6 -7 -7 -7 -7 -7 -8 -8 -8 -9 -9 -9 -9 -10

GFSGL_700_temp_348.txt.gz
Temp
13 13 13 13 12 12 12 12 11 11 11 10 10 10 9 9 9 8 8 8 8 8 7 7 7 7 7 7 6 6 5 5 5 4 3 3 3 3 2 1 -0 -1 -2
13 13 13 13 12 12 12 12 11 11 10 10 10 9 9 9 8 8 8 7 7 7 7 7 7 7 6 6 6 5 5 4 4 4 3 3 2 2 2 1 -1 -2 -2
13 13 13 13 12 12 12 11 11 11 10 10 10 9 9 8 8 8 7 7 7 7 7 7 6 6 6 6 5 5 4 4 3 3 3 2 2 2 2 0 -1 -2 -3
13 13 13 12 12 12 12 11 11 10 10 10 9 9 9 8 8 7 7 7 7 6 6 6 6 6 6 6 5 5 4 4 3 2 2 2 2 2 1 0 -1 -2 -3
12 12 13 12 12 12 11 11 11 10 10 10 9 9 9 8 7 7 7 7 6 6 6 6 5 6 5 5 5 5 4 3 2 2 2 2 1 1 0 -1 -1 -2 -2
12 12 12 12 12 11 11 11 11 10 10 10 10 9 9 8 7 7 7 6 6 6 5 5 5 5 5 5 5 4 4 3 2 2 1 1 1 0 -0 -2 -2 -3 -3
12 12 12 12 11 11 11 11 11 11 10 10 10 9 9 8 7 7 6 6 6 5 5 5 5 5 5 4 4 4 3 2 2 1 1 1 -0 -1 -1 -2 -2 -3 -3
12 12 12 12 11 11 11 11 11 10 10 10 10 9 9 8 8 7 6 6 6 5 5 5 4 4 4 4 4 3 3 2 1 1 0 -0 -1 -1 -2 -2 -3 -3 -3
12 12 12 12 12 12 12 11 10 10 10 10 10 9 9 8 7 7 6 6 5 5 5 4 4 4 4 4 4 3 2 1 1 0 0 -1 -1 -2 -2 -3 -3 -4 -4
12 12 12 12 12 12 11 11 11 10 10 9 9 9 8 8 7 7 6 5 5 5 4 4 4 3 3 4 3 3 2 1 0 0 -0 -1 -2 -2 -3 -3 -3 -4 -4
11 11 11 11 11 11 11 11 11 10 10 9 9 8 8 7 7 6 6 5 5 4 4 4 3 3 3 3 3 2 2 1 0 -0 -1 -2 -2 -2 -3 -3 -4 -4 -5
10 10 11 11 11 11 11 11 11 10 10 9 9 8 8 7 7 6 6 5 4 4 4 3 3 3 3 3 3 2 1 0 -0 -0 -1 -2 -3 -3 -3 -4 -4 -5 -5
8 9 9 10 10 11 10 10 10 10 9 9 9 9 8 8 7 6 5 5 4 4 3 3 3 3 2 2 2 1 1 -0 -0 -1 -2 -2 -3 -3 -3 -4 -4 -4 -5
8 8 8 8 9 9 9 9 9 9 9 9 9 9 8 7 6 6 5 4 4 3 2 2 2 2 2 2 2 1 0 -1 -1 -1 -2 -3 -3 -3 -4 -4 -4 -5 -5
7 8 8 8 8 8 9 9 9 9 9 9 8 7 7 7 6 5 4 3 3 2 2 2 2 2 2 2 1 0 -1 -1 -1 -2 -2 -3 -3 -4 -4 -4 -5 -5 -5
6 7 7 7 8 8 9 9 9 9 9 9 8 8 7 6 5 4 3 3 2 2 2 2 2 2 1 1 1 -0 -1 -2 -2 -3 -3 -3 -4 -4 -4 -4 -5 -5 -5
5 6 6 7 7 7 7 7 7 8 8 8 8 7 7 6 5 5 3 2 2 2 2 2 1 1 1 1 -0 -1 -2 -2 -3 -3 -3 -4 -4 -4 -4 -5 -5 -5 -5
4 5 5 5 6 6 6 6 6 6 7 7 7 7 6 5 5 4 3 2 2 2 2 1 1 1 0 -0 -1 -2 -2 -3 -3 -4 -4 -4 -4 -5 -5 -5 -5 -5 -6
4 4 4 5 5 5 5 6 6 6 6 6 6 6 6 6 4 3 3 2 2 1 1 1 1 0 -1 -1 -2 -2 -3 -3 -4 -4 -4 -5 -5 -5 -5 -5 -6 -6 -6
3 3 4 4 4 4 4 4 5 5 5 5 5 5 5 4 4 3 2 1 1 1 1 0 -0 -1 -1 -2 -3 -3 -3 -4 -4 -4 -5 -5 -5 -5 -5 -6 -6 -7 -7
2 3 3 3 3 3 4 3 4 4 4 4 4 4 3 3 2 1 1 1 1 1 0 -0 -1 -1 -2 -3 -4 -4 -4 -4 -4 -5 -5 -5 -5 -6 -6 -6 -7 -7 -7
2 2 2 3 2 3 3 3 3 3 3 3 3 3 3 2 2 1 1 1 0 0 -0 -1 -2 -3 -3 -4 -4 -4 -4 -5 -5 -5 -5 -6 -6 -6 -6 -6 -7 -7 -8
1 1 2 2 2 2 2 2 2 3 3 3 3 2 2 1 1 0 -0 -0 -0 -1 -1 -2 -4 -4 -5 -5 -5 -5 -5 -5 -5 -5 -6 -6 -6 -6 -7 -7 -7 -8 -8
1 1 1 2 2 2 1 1 1 2 2 2 2 1 1 0 -0 -1 -1 -1 -1 -2 -2 -2 -5 -5 -6 -6 -5 -5 -5 -5 -6 -6 -6 -6 -6 -7 -7 -8 -8 -8 -8
1 1 1 2 2 1 0 0 0 0 1 1 0 -0 -1 -1 -1 -2 -2 -2 -2 -3 -3 -5 -6 -6 -6 -6 -5 -6 -6 -6 -6 -7 -7 -7 -7 -7 -8 -8 -9 -9 -9
1 1 1 2 2 1 -0 -0 -0 -0 0 0 -1 -2 -2 -2 -2 -3 -3 -3 -4 -4 -5 -6 -7 -7 -6 -6 -6 -6 -6 -6 -7 -7 -7 -7 -8 -8 -9 -9 -9 -9 -10